TKY45 EPKT-LEPA

Flight info

Callsign TKY45
Flight time 2h 40m
Altitude 36000
Route TUSIN DCT UPLAV DCT MIKOV DCT DETSA/N0461F350 DCT BAKOR DCT GEKBA/N0477F290 DCT VAMTU DCT KOLON DCT GANGU DCT PADKO DCT VATIR N852 VERSO L129 LUNIK
Aircraft B38M/M-SDE1FGHILORVWXY/HB1

Departure

Time 2026-05-05 19:59
Airport Katowice Wojciech Korfanty International Airport (EPKT)

Arrival

Time 2026-05-05 22:39
Airport Palma de Mallorca Airport (LEPA)
Time Latitude Longitude Altitude Speed Heading
2026-05-05 19:35 50.47185 19.07213 1021 ft 0 kts 179°
2026-05-05 19:46 50.47200 19.07212 1023 ft 4 kts 169°
2026-05-05 19:46 50.47224 19.07196 1021 ft 4 kts 136°
2026-05-05 19:46 50.47235 19.07164 1021 ft 3 kts 92°
2026-05-05 19:47 50.47235 19.07152 1024 ft 0 kts 90°
2026-05-05 19:51 50.47235 19.07153 1024 ft 0 kts 90°
2026-05-05 19:51 50.47235 19.07170 1021 ft 4 kts 90°
2026-05-05 19:51 50.47235 19.07256 1023 ft 12 kts 90°
2026-05-05 19:51 50.47235 19.07424 1029 ft 19 kts 90°
2026-05-05 19:52 50.47234 19.07646 1033 ft 22 kts 89°
2026-05-05 19:52 50.47235 19.07858 1028 ft 21 kts 90°
2026-05-05 19:52 50.47234 19.08088 1033 ft 21 kts 90°
2026-05-05 19:52 50.47233 19.08316 1030 ft 21 kts 90°
2026-05-05 19:53 50.47232 19.08542 1032 ft 21 kts 90°
2026-05-05 19:53 50.47232 19.08768 1034 ft 21 kts 90°
2026-05-05 19:53 50.47232 19.08991 1035 ft 20 kts 90°
2026-05-05 19:53 50.47231 19.09214 1037 ft 20 kts 90°
2026-05-05 19:54 50.47231 19.09436 1039 ft 20 kts 90°
2026-05-05 19:54 50.47230 19.09656 1043 ft 20 kts 90°
2026-05-05 19:54 50.47230 19.09877 1045 ft 20 kts 90°
2026-05-05 19:54 50.47249 19.10045 1046 ft 14 kts 53°
2026-05-05 19:55 50.47309 19.10165 1047 ft 14 kts 52°
2026-05-05 19:55 50.47369 19.10288 1045 ft 12 kts 52°
2026-05-05 19:55 50.47401 19.10351 1046 ft 0 kts 52°
2026-05-05 19:56 50.47410 19.10369 1046 ft 6 kts 52°
2026-05-05 19:56 50.47463 19.10440 1046 ft 15 kts 14°
2026-05-05 19:57 50.47568 19.10440 1046 ft 13 kts 345°
2026-05-05 19:57 50.47595 19.10364 1048 ft 12 kts 269°
2026-05-05 19:57 50.47595 19.10351 1048 ft 0 kts 269°
2026-05-05 19:57 50.47595 19.10348 1048 ft 1 kts 269°
2026-05-05 19:58 50.47595 19.10222 1047 ft 36 kts 270°
2026-05-05 19:58 50.47596 19.09481 1039 ft 98 kts 269°
2026-05-05 19:58 50.47600 19.08119 1029 ft 149 kts 270°
2026-05-05 19:58 50.47607 19.06292 1129 ft 177 kts 270°
2026-05-05 19:59 50.47612 19.04311 1610 ft 187 kts 266°
2026-05-05 19:59 50.47606 19.02307 2414 ft 177 kts 263°
2026-05-05 19:59 50.47609 19.00340 2929 ft 192 kts 263°
2026-05-05 19:59 50.47606 18.98097 3158 ft 219 kts 263°
2026-05-05 20:00 50.47608 18.95609 3725 ft 231 kts 264°
2026-05-05 20:00 50.47601 18.93012 4173 ft 246 kts 264°
2026-05-05 20:00 50.47569 18.90264 4702 ft 255 kts 264°
2026-05-05 20:00 50.47536 18.87472 5442 ft 257 kts 264°
2026-05-05 20:01 50.47501 18.84648 6098 ft 261 kts 264°
2026-05-05 20:01 50.47465 18.81774 6745 ft 265 kts 265°
2026-05-05 20:01 50.47429 18.78862 7365 ft 269 kts 265°
2026-05-05 20:01 50.47390 18.75890 7974 ft 274 kts 265°
2026-05-05 20:02 50.47350 18.72871 8597 ft 279 kts 266°
2026-05-05 20:02 50.47308 18.69796 9214 ft 284 kts 266°
2026-05-05 20:02 50.47265 18.66671 9821 ft 289 kts 266°
2026-05-05 20:02 50.47219 18.63508 10189 ft 302 kts 266°
2026-05-05 20:03 50.46995 18.60109 10341 ft 318 kts 251°
2026-05-05 20:03 50.45941 18.57015 10557 ft 329 kts 227°
2026-05-05 20:03 50.44135 18.54758 10902 ft 337 kts 207°
2026-05-05 20:03 50.41994 18.53144 11347 ft 343 kts 205°
2026-05-05 20:04 50.39843 18.51511 12013 ft 345 kts 205°
2026-05-05 20:04 50.37678 18.49884 12651 ft 347 kts 205°
2026-05-05 20:04 50.35519 18.48271 13327 ft 349 kts 204°
2026-05-05 20:04 50.33316 18.46629 13965 ft 352 kts 204°
2026-05-05 20:05 50.31085 18.44990 14521 ft 356 kts 201°
2026-05-05 20:05 50.28664 18.44166 15084 ft 359 kts 182°
2026-05-05 20:05 50.26172 18.44591 15634 ft 365 kts 171°
2026-05-05 20:05 50.23659 18.45320 16170 ft 369 kts 171°
2026-05-05 20:06 50.21121 18.46078 16722 ft 373 kts 170°
2026-05-05 20:06 50.18553 18.46861 17264 ft 377 kts 170°
2026-05-05 20:06 50.15970 18.47658 17799 ft 381 kts 170°
2026-05-05 20:06 50.13357 18.48467 18308 ft 384 kts 170°
2026-05-05 20:07 50.10726 18.49282 18790 ft 387 kts 170°
2026-05-05 20:07 50.08078 18.50101 19253 ft 390 kts 170°
2026-05-05 20:07 50.05405 18.50927 19717 ft 393 kts 170°
2026-05-05 20:07 50.02712 18.51759 20175 ft 396 kts 170°
2026-05-05 20:08 50.00002 18.52595 20621 ft 399 kts 170°
2026-05-05 20:08 49.97269 18.53438 21054 ft 402 kts 170°
2026-05-05 20:08 49.94516 18.54285 21514 ft 405 kts 170°
2026-05-05 20:08 49.91737 18.55140 21944 ft 408 kts 170°
2026-05-05 20:09 49.88925 18.55677 22371 ft 409 kts 182°
2026-05-05 20:09 49.86127 18.54971 22801 ft 409 kts 200°
2026-05-05 20:09 49.83581 18.53018 23192 ft 411 kts 216°
2026-05-05 20:09 49.81475 18.50027 23596 ft 412 kts 230°
2026-05-05 20:10 49.79637 18.46608 23958 ft 415 kts 231°
2026-05-05 20:10 49.77824 18.43107 24358 ft 417 kts 232°
2026-05-05 20:10 49.76631 18.40760 24624 ft 418 kts 232°
2026-05-05 20:10 49.74251 18.36027 25140 ft 421 kts 232°
2026-05-05 20:11 49.72463 18.32444 25539 ft 423 kts 233°
2026-05-05 20:11 49.70663 18.28830 25918 ft 425 kts 233°
2026-05-05 20:11 49.68859 18.25211 26302 ft 426 kts 233°
2026-05-05 20:11 49.67045 18.21574 26695 ft 428 kts 233°
2026-05-05 20:12 49.65813 18.19107 26934 ft 429 kts 233°
2026-05-05 20:12 49.64009 18.15501 27300 ft 431 kts 233°
2026-05-05 20:12 49.62174 18.11834 27656 ft 433 kts 233°
2026-05-05 20:12 49.60326 18.08149 27973 ft 435 kts 233°
2026-05-05 20:13 49.58471 18.04455 28311 ft 437 kts 233°
2026-05-05 20:13 49.56606 18.00744 28645 ft 439 kts 233°
2026-05-05 20:13 49.54727 17.97012 28964 ft 441 kts 233°
2026-05-05 20:13 49.52840 17.93271 29277 ft 443 kts 233°
2026-05-05 20:14 49.50942 17.89511 29577 ft 446 kts 233°
2026-05-05 20:14 49.49036 17.85740 29879 ft 447 kts 233°
2026-05-05 20:14 49.47121 17.81960 30208 ft 447 kts 233°
2026-05-05 20:14 49.45211 17.78192 30573 ft 446 kts 233°
2026-05-05 20:15 49.43303 17.74434 30936 ft 445 kts 233°
2026-05-05 20:15 49.41401 17.70693 31296 ft 444 kts 233°
2026-05-05 20:15 49.39497 17.66954 31662 ft 443 kts 233°
2026-05-05 20:15 49.37599 17.63233 32025 ft 442 kts 233°
2026-05-05 20:16 49.35705 17.59522 32386 ft 441 kts 232°
2026-05-05 20:16 49.33813 17.55819 32755 ft 440 kts 232°
2026-05-05 20:16 49.31868 17.52213 33117 ft 439 kts 228°
2026-05-05 20:16 49.29813 17.48760 33459 ft 438 kts 229°
2026-05-05 20:17 49.27773 17.45295 33800 ft 437 kts 229°
2026-05-05 20:17 49.25751 17.41842 34098 ft 435 kts 229°
2026-05-05 20:17 49.23733 17.38393 34385 ft 434 kts 229°
2026-05-05 20:17 49.21716 17.34946 34650 ft 434 kts 229°
2026-05-05 20:18 49.19702 17.31506 34900 ft 434 kts 229°
2026-05-05 20:18 49.17689 17.28074 35164 ft 433 kts 229°
2026-05-05 20:18 49.15678 17.24649 35410 ft 432 kts 229°
2026-05-05 20:18 49.13696 17.21279 35648 ft 432 kts 229°
2026-05-05 20:19 49.11683 17.17859 35790 ft 433 kts 229°
2026-05-05 20:19 49.07665 17.11049 35782 ft 430 kts 229°
2026-05-05 20:20 49.03651 17.04262 35789 ft 431 kts 229°
2026-05-05 20:20 48.99630 16.97481 35787 ft 431 kts 229°
2026-05-05 20:21 48.95603 16.90710 35781 ft 431 kts 229°
2026-05-05 20:21 48.91575 16.83952 35785 ft 431 kts 228°
2026-05-05 20:22 48.87536 16.77194 35775 ft 431 kts 228°
2026-05-05 20:22 48.83500 16.70458 35764 ft 431 kts 228°
2026-05-05 20:23 48.79456 16.63721 35757 ft 432 kts 228°
2026-05-05 20:23 48.77637 16.60137 35756 ft 429 kts 239°
2026-05-05 20:23 48.76045 16.56300 35751 ft 431 kts 237°
2026-05-05 20:24 48.72801 16.48660 35751 ft 431 kts 237°
2026-05-05 20:24 48.69561 16.41022 35746 ft 431 kts 237°
2026-05-05 20:25 48.66321 16.33401 35741 ft 430 kts 237°
2026-05-05 20:25 48.63077 16.25790 35742 ft 430 kts 237°
2026-05-05 20:26 48.59832 16.18202 35737 ft 430 kts 237°
2026-05-05 20:26 48.56610 16.10686 35739 ft 429 kts 237°
2026-05-05 20:27 48.53363 16.03134 35734 ft 429 kts 237°
2026-05-05 20:27 48.50110 15.95590 35737 ft 428 kts 237°
2026-05-05 20:28 48.46857 15.88065 35736 ft 428 kts 237°
2026-05-05 20:28 48.43601 15.80555 35739 ft 428 kts 237°
2026-05-05 20:29 48.40343 15.73062 35739 ft 428 kts 237°
2026-05-05 20:29 48.37079 15.65575 35745 ft 428 kts 237°
2026-05-05 20:30 48.33810 15.58098 35742 ft 427 kts 237°
2026-05-05 20:30 48.30560 15.50686 35753 ft 427 kts 237°
2026-05-05 20:31 48.27290 15.43246 35754 ft 427 kts 237°
2026-05-05 20:31 48.24015 15.35816 35759 ft 427 kts 237°
2026-05-05 20:32 48.20733 15.28392 35763 ft 427 kts 237°
2026-05-05 20:32 48.17449 15.20982 35769 ft 427 kts 237°
2026-05-05 20:33 48.14155 15.13570 35769 ft 427 kts 237°
2026-05-05 20:33 48.10858 15.06172 35781 ft 427 kts 236°
2026-05-05 20:34 48.07555 14.98781 35784 ft 428 kts 236°
2026-05-05 20:34 48.04245 14.91394 35787 ft 428 kts 236°
2026-05-05 20:35 48.00927 14.84009 35786 ft 428 kts 236°
2026-05-05 20:35 47.97629 14.76689 35802 ft 428 kts 236°
2026-05-05 20:36 47.94300 14.69319 35806 ft 428 kts 236°
2026-05-05 20:36 47.90967 14.61962 35812 ft 428 kts 236°
2026-05-05 20:37 47.87632 14.54617 35821 ft 428 kts 236°
2026-05-05 20:37 47.84294 14.47288 35827 ft 427 kts 236°
2026-05-05 20:38 47.80954 14.39975 35831 ft 427 kts 236°
2026-05-05 20:38 47.77610 14.32669 35827 ft 427 kts 235°
2026-05-05 20:39 47.74261 14.25375 35840 ft 427 kts 235°
2026-05-05 20:39 47.70909 14.18092 35849 ft 427 kts 235°
2026-05-05 20:40 47.67555 14.10826 35853 ft 426 kts 235°
2026-05-05 20:40 47.64204 14.03586 35865 ft 426 kts 235°
2026-05-05 20:41 47.60849 13.96353 35858 ft 425 kts 235°
2026-05-05 20:41 47.57501 13.89155 35861 ft 424 kts 235°
2026-05-05 20:42 47.54172 13.82017 35851 ft 423 kts 235°
2026-05-05 20:42 47.50825 13.74862 35871 ft 423 kts 235°
2026-05-05 20:43 47.47476 13.67719 35866 ft 422 kts 234°
2026-05-05 20:43 47.44133 13.60607 35880 ft 422 kts 234°
2026-05-05 20:44 47.40785 13.53502 35868 ft 420 kts 234°
2026-05-05 20:44 47.37435 13.46413 35870 ft 420 kts 234°
2026-05-05 20:45 47.32423 13.35837 35876 ft 419 kts 234°
2026-05-05 20:45 47.29082 13.28814 35881 ft 419 kts 234°
2026-05-05 20:46 47.25739 13.21799 35892 ft 418 kts 234°
2026-05-05 20:46 47.22392 13.14796 35888 ft 418 kts 234°
2026-05-05 20:47 47.19040 13.07802 35893 ft 417 kts 234°
2026-05-05 20:47 47.15716 13.00882 35915 ft 418 kts 234°
2026-05-05 20:48 47.12362 12.93918 35913 ft 417 kts 234°
2026-05-05 20:48 47.09012 12.86980 35920 ft 416 kts 234°
2026-05-05 20:49 47.05665 12.80063 35929 ft 416 kts 234°
2026-05-05 20:49 47.02317 12.73164 35940 ft 415 kts 234°
2026-05-05 20:50 46.99535 12.67442 35938 ft 414 kts 234°
2026-05-05 20:50 46.95648 12.59465 35946 ft 413 kts 234°
2026-05-05 20:51 46.92310 12.52628 35985 ft 412 kts 234°
2026-05-05 20:51 46.88980 12.45828 36004 ft 411 kts 234°
2026-05-05 20:52 46.85647 12.39037 36018 ft 410 kts 234°
2026-05-05 20:52 46.82324 12.32281 36028 ft 409 kts 234°
2026-05-05 20:53 46.80667 12.28903 35820 ft 408 kts 236°
2026-05-05 20:53 46.79320 12.25350 35583 ft 405 kts 242°
2026-05-05 20:53 46.78035 12.21694 35376 ft 404 kts 242°
2026-05-05 20:53 46.76760 12.18052 35166 ft 402 kts 243°
2026-05-05 20:54 46.75493 12.14424 35044 ft 401 kts 243°
2026-05-05 20:54 46.74228 12.10801 35054 ft 400 kts 242°
2026-05-05 20:54 46.71702 12.03573 35045 ft 400 kts 243°
2026-05-05 20:55 46.69192 11.96413 35028 ft 399 kts 242°
2026-05-05 20:55 46.66661 11.89210 35006 ft 399 kts 242°
2026-05-05 20:56 46.64136 11.82047 35007 ft 398 kts 242°
2026-05-05 20:56 46.61609 11.74894 34963 ft 396 kts 242°
2026-05-05 20:57 46.60137 11.71522 34960 ft 394 kts 231°
2026-05-05 20:57 46.58410 11.68428 34960 ft 396 kts 232°
2026-05-05 20:57 46.54981 11.62168 34962 ft 395 kts 232°
2026-05-05 20:58 46.51539 11.55951 34862 ft 394 kts 232°
2026-05-05 20:58 46.49820 11.52851 34983 ft 394 kts 232°
2026-05-05 20:58 46.48122 11.49794 34970 ft 395 kts 232°
2026-05-05 20:59 46.44689 11.43622 34974 ft 393 kts 232°
2026-05-05 20:59 46.41252 11.37458 34974 ft 392 kts 232°
2026-05-05 21:00 46.37828 11.31332 34966 ft 392 kts 232°
2026-05-05 21:00 46.34397 11.25205 35048 ft 391 kts 232°
2026-05-05 21:01 46.31546 11.20125 35048 ft 391 kts 231°
2026-05-05 21:01 46.28124 11.14039 35062 ft 390 kts 231°
2026-05-05 21:02 46.24696 11.07956 35050 ft 390 kts 231°
2026-05-05 21:02 46.21265 11.01882 35039 ft 390 kts 231°
2026-05-05 21:03 46.17828 10.95811 35036 ft 390 kts 231°
2026-05-05 21:03 46.14394 10.89756 35023 ft 390 kts 231°
2026-05-05 21:04 46.10953 10.83705 35009 ft 389 kts 231°
2026-05-05 21:04 46.07515 10.77671 34984 ft 388 kts 231°
2026-05-05 21:05 46.04083 10.71660 35006 ft 389 kts 231°
2026-05-05 21:05 46.00651 10.65662 34993 ft 388 kts 231°
2026-05-05 21:06 45.97217 10.59674 34998 ft 388 kts 231°
2026-05-05 21:06 45.93785 10.53701 34999 ft 387 kts 231°
2026-05-05 21:07 45.90351 10.47739 35005 ft 388 kts 231°
2026-05-05 21:07 45.86920 10.41795 34970 ft 386 kts 231°
2026-05-05 21:08 45.83484 10.35854 35004 ft 386 kts 231°
2026-05-05 21:08 45.80267 10.30303 34997 ft 385 kts 231°
2026-05-05 21:09 45.76839 10.24402 34995 ft 385 kts 231°
2026-05-05 21:09 45.73419 10.18524 35015 ft 384 kts 230°
2026-05-05 21:10 45.69988 10.12642 34995 ft 384 kts 230°
2026-05-05 21:10 45.66568 10.06791 34999 ft 383 kts 230°
2026-05-05 21:11 45.63150 10.00954 34994 ft 382 kts 230°
2026-05-05 21:11 45.59738 9.95141 35000 ft 382 kts 230°
2026-05-05 21:12 45.56322 9.89332 34997 ft 382 kts 230°
2026-05-05 21:12 45.52904 9.83534 34988 ft 382 kts 230°
2026-05-05 21:13 45.49486 9.77746 34987 ft 381 kts 230°
2026-05-05 21:13 45.46069 9.71971 35064 ft 381 kts 230°
2026-05-05 21:14 45.42649 9.66204 35073 ft 381 kts 230°
2026-05-05 21:14 45.39233 9.60455 35069 ft 381 kts 230°
2026-05-05 21:15 45.35768 9.54757 35041 ft 381 kts 229°
2026-05-05 21:15 45.32295 9.49065 34972 ft 381 kts 229°
2026-05-05 21:16 45.28852 9.43430 34990 ft 381 kts 229°
2026-05-05 21:16 45.25372 9.37746 34976 ft 381 kts 229°
2026-05-05 21:17 45.21897 9.32083 34978 ft 381 kts 229°
2026-05-05 21:17 45.18420 9.26426 34969 ft 381 kts 229°
2026-05-05 21:18 45.14941 9.20777 34963 ft 380 kts 229°
2026-05-05 21:18 45.11457 9.15133 34970 ft 381 kts 229°
2026-05-05 21:19 45.07966 9.09489 34967 ft 380 kts 229°
2026-05-05 21:19 45.04484 9.03871 34967 ft 380 kts 229°
2026-05-05 21:20 45.00990 8.98243 34963 ft 380 kts 229°
2026-05-05 21:20 44.97514 8.92658 34969 ft 380 kts 229°
2026-05-05 21:21 44.94021 8.87055 34964 ft 380 kts 229°
2026-05-05 21:21 44.91148 8.80806 34961 ft 381 kts 237°
2026-05-05 21:22 44.88325 8.74479 34968 ft 381 kts 236°
2026-05-05 21:22 44.85466 8.68190 34973 ft 381 kts 236°
2026-05-05 21:23 44.82591 8.61905 34971 ft 381 kts 236°
2026-05-05 21:23 44.79718 8.55641 34969 ft 381 kts 236°
2026-05-05 21:24 44.76840 8.49380 34971 ft 381 kts 235°
2026-05-05 21:24 44.73964 8.43136 34971 ft 380 kts 235°
2026-05-05 21:25 44.71081 8.36890 34974 ft 380 kts 235°
2026-05-05 21:25 44.68214 8.30695 34976 ft 380 kts 235°
2026-05-05 21:26 44.65329 8.24473 34965 ft 380 kts 235°
2026-05-05 21:26 44.62438 8.18252 34969 ft 380 kts 235°
2026-05-05 21:27 44.59545 8.12039 34974 ft 380 kts 235°
2026-05-05 21:27 44.56651 8.05838 34968 ft 380 kts 235°
2026-05-05 21:28 44.53753 7.99642 34970 ft 380 kts 235°
2026-05-05 21:28 44.50850 7.93447 34969 ft 380 kts 235°
2026-05-05 21:29 44.47963 7.87300 34971 ft 380 kts 235°
2026-05-05 21:29 44.45053 7.81118 34971 ft 381 kts 235°
2026-05-05 21:30 44.42133 7.74929 34967 ft 381 kts 235°
2026-05-05 21:30 44.39208 7.68741 34971 ft 381 kts 234°
2026-05-05 21:31 44.36277 7.62554 34972 ft 382 kts 234°
2026-05-05 21:31 44.33336 7.56358 34970 ft 382 kts 234°
2026-05-05 21:32 44.30388 7.50162 34981 ft 383 kts 234°
2026-05-05 21:32 44.27436 7.43972 34979 ft 383 kts 234°
2026-05-05 21:33 44.24482 7.37789 34962 ft 384 kts 235°
2026-05-05 21:33 44.21547 7.31661 35005 ft 384 kts 234°
2026-05-05 21:34 44.18579 7.25474 34968 ft 384 kts 234°
2026-05-05 21:34 44.15611 7.19301 34985 ft 384 kts 234°
2026-05-05 21:35 44.12637 7.13130 34963 ft 383 kts 234°
2026-05-05 21:35 44.09670 7.06986 34953 ft 382 kts 234°
2026-05-05 21:36 44.06694 7.00837 34984 ft 383 kts 234°
2026-05-05 21:36 44.03712 6.94687 34965 ft 382 kts 234°
2026-05-05 21:37 44.00734 6.88560 34978 ft 383 kts 234°
2026-05-05 21:37 43.97755 6.82443 34978 ft 382 kts 234°
2026-05-05 21:38 43.94768 6.76324 34947 ft 382 kts 234°
2026-05-05 21:38 43.91799 6.70250 34980 ft 383 kts 234°
2026-05-05 21:39 43.88803 6.64138 34973 ft 382 kts 234°
2026-05-05 21:39 43.85808 6.58040 34960 ft 382 kts 234°
2026-05-05 21:40 43.82812 6.51952 34944 ft 383 kts 234°
2026-05-05 21:40 43.79815 6.45873 34972 ft 382 kts 234°
2026-05-05 21:41 43.76817 6.39808 34961 ft 382 kts 234°
2026-05-05 21:41 43.73817 6.33751 34966 ft 381 kts 234°
2026-05-05 21:42 43.70813 6.27695 34944 ft 381 kts 234°
2026-05-05 21:42 43.67832 6.21699 34945 ft 381 kts 234°
2026-05-05 21:43 43.64832 6.15680 34942 ft 380 kts 234°
2026-05-05 21:43 43.61833 6.09673 34944 ft 380 kts 234°
2026-05-05 21:44 43.58830 6.03670 34940 ft 380 kts 234°
2026-05-05 21:44 43.55828 5.97681 34931 ft 380 kts 234°
2026-05-05 21:45 43.52823 5.91701 34933 ft 379 kts 234°
2026-05-05 21:45 43.49817 5.85729 34928 ft 379 kts 234°
2026-05-05 21:46 43.46804 5.79757 34927 ft 380 kts 234°
2026-05-05 21:46 43.43787 5.73786 34929 ft 380 kts 234°
2026-05-05 21:47 43.40764 5.67818 34929 ft 380 kts 234°
2026-05-05 21:47 43.38249 5.62860 34924 ft 380 kts 233°
2026-05-05 21:48 43.34726 5.55929 34926 ft 380 kts 233°
2026-05-05 21:48 43.32183 5.50939 34927 ft 381 kts 233°
2026-05-05 21:49 43.29150 5.44997 34928 ft 381 kts 233°
2026-05-05 21:49 43.26106 5.39044 34924 ft 381 kts 233°
2026-05-05 21:50 43.22956 5.33192 34912 ft 381 kts 224°
2026-05-05 21:50 43.18983 5.28444 34921 ft 382 kts 221°
2026-05-05 21:51 43.14961 5.23680 34916 ft 382 kts 221°
2026-05-05 21:51 43.10921 5.18943 34909 ft 383 kts 221°
2026-05-05 21:52 43.04842 5.11840 34917 ft 384 kts 221°
2026-05-05 21:53 43.00772 5.07097 34879 ft 384 kts 221°
2026-05-05 21:53 42.96703 5.02361 34905 ft 385 kts 221°
2026-05-05 21:54 42.92621 4.97620 34908 ft 385 kts 221°
2026-05-05 21:54 42.88535 4.92883 34911 ft 386 kts 221°
2026-05-05 21:55 42.84443 4.88149 34911 ft 386 kts 221°
2026-05-05 21:55 42.80371 4.83444 34913 ft 386 kts 221°
2026-05-05 21:56 42.76264 4.78709 34914 ft 386 kts 221°
2026-05-05 21:56 42.72157 4.73981 34912 ft 386 kts 221°
2026-05-05 21:57 42.68053 4.69267 34913 ft 386 kts 221°
2026-05-05 21:57 42.63945 4.64555 34910 ft 386 kts 221°
2026-05-05 21:58 42.59835 4.59851 34908 ft 387 kts 221°
2026-05-05 21:58 42.55715 4.55142 34910 ft 387 kts 221°
2026-05-05 21:59 42.51595 4.50441 34913 ft 387 kts 222°
2026-05-05 21:59 42.47498 4.45776 34914 ft 387 kts 222°
2026-05-05 22:00 42.43372 4.41086 34915 ft 387 kts 222°
2026-05-05 22:00 42.39244 4.36403 34917 ft 388 kts 222°
2026-05-05 22:01 42.35108 4.31718 34917 ft 388 kts 222°
2026-05-05 22:01 42.30970 4.27040 34914 ft 388 kts 222°
2026-05-05 22:02 42.26828 4.22364 34917 ft 388 kts 222°
2026-05-05 22:02 42.22686 4.17696 34916 ft 388 kts 222°
2026-05-05 22:03 42.18540 4.13031 34919 ft 388 kts 222°
2026-05-05 22:03 42.13932 4.09169 34919 ft 393 kts 213°
2026-05-05 22:04 42.09172 4.05643 34921 ft 393 kts 213°
2026-05-05 22:04 42.04366 4.02116 34921 ft 393 kts 213°
2026-05-05 22:05 41.99553 3.98593 34920 ft 393 kts 213°
2026-05-05 22:05 41.94739 3.95076 34915 ft 395 kts 213°
2026-05-05 22:05 41.92229 3.93553 34909 ft 401 kts 201°
2026-05-05 22:06 41.89466 3.92816 34924 ft 406 kts 197°
2026-05-05 22:06 41.83889 3.91423 34915 ft 409 kts 197°
2026-05-05 22:07 41.78278 3.90104 34913 ft 409 kts 196°
2026-05-05 22:07 41.72699 3.88817 34921 ft 410 kts 196°
2026-05-05 22:08 41.67068 3.87522 34916 ft 411 kts 196°
2026-05-05 22:08 41.61430 3.86228 34914 ft 411 kts 196°
2026-05-05 22:09 41.55790 3.84932 34918 ft 412 kts 196°
2026-05-05 22:09 41.50140 3.83636 34913 ft 412 kts 196°
2026-05-05 22:10 41.44488 3.82342 34913 ft 412 kts 196°
2026-05-05 22:10 41.38839 3.81050 34913 ft 412 kts 196°
2026-05-05 22:11 41.33195 3.79763 34912 ft 412 kts 196°
2026-05-05 22:11 41.27545 3.78476 34915 ft 412 kts 196°
2026-05-05 22:12 41.21902 3.77193 34917 ft 411 kts 196°
2026-05-05 22:12 41.16256 3.75905 34917 ft 410 kts 198°
2026-05-05 22:12 41.13585 3.74785 34825 ft 395 kts 208°
2026-05-05 22:13 41.11063 3.73480 34198 ft 395 kts 207°
2026-05-05 22:13 41.08477 3.72163 33226 ft 401 kts 207°
2026-05-05 22:13 41.05870 3.70826 32368 ft 403 kts 207°
2026-05-05 22:13 41.03262 3.69485 31669 ft 401 kts 207°
2026-05-05 22:14 41.00676 3.68155 31111 ft 397 kts 207°
2026-05-05 22:14 40.98112 3.66836 30549 ft 393 kts 207°
2026-05-05 22:14 40.95576 3.65533 30010 ft 390 kts 207°
2026-05-05 22:14 40.93051 3.64237 29372 ft 387 kts 207°
2026-05-05 22:15 40.90556 3.62957 28805 ft 383 kts 207°
2026-05-05 22:15 40.88089 3.61693 28264 ft 378 kts 207°
2026-05-05 22:15 40.85647 3.60443 27743 ft 374 kts 207°
2026-05-05 22:15 40.83232 3.59206 27225 ft 371 kts 207°
2026-05-05 22:16 40.80867 3.57997 26710 ft 367 kts 207°
2026-05-05 22:16 40.78491 3.56783 26201 ft 364 kts 207°
2026-05-05 22:16 40.76136 3.55580 25688 ft 362 kts 207°
2026-05-05 22:16 40.73796 3.54387 25210 ft 360 kts 207°
2026-05-05 22:17 40.71468 3.53200 24702 ft 358 kts 207°
2026-05-05 22:17 40.69152 3.52020 24210 ft 356 kts 207°
2026-05-05 22:17 40.66842 3.50844 23715 ft 355 kts 207°
2026-05-05 22:17 40.64540 3.49674 23167 ft 353 kts 207°
2026-05-05 22:18 40.62253 3.48512 22626 ft 351 kts 207°
2026-05-05 22:18 40.59978 3.47357 22133 ft 349 kts 207°
2026-05-05 22:18 40.57727 3.46214 21663 ft 346 kts 207°
2026-05-05 22:18 40.55492 3.45081 21194 ft 343 kts 206°
2026-05-05 22:19 40.53269 3.43954 20727 ft 341 kts 206°
2026-05-05 22:19 40.51065 3.42837 20265 ft 339 kts 206°
2026-05-05 22:19 40.48867 3.41725 19800 ft 337 kts 206°
2026-05-05 22:19 40.46684 3.40620 19355 ft 336 kts 206°
2026-05-05 22:20 40.44471 3.39627 18862 ft 341 kts 196°
2026-05-05 22:20 40.42078 3.39482 18418 ft 347 kts 185°
2026-05-05 22:20 40.39666 3.39563 17960 ft 345 kts 185°
2026-05-05 22:20 40.37303 3.39662 17512 ft 343 kts 184°
2026-05-05 22:21 40.34925 3.39778 17080 ft 341 kts 184°
2026-05-05 22:21 40.32565 3.39904 16658 ft 338 kts 184°
2026-05-05 22:21 40.30227 3.40033 16249 ft 335 kts 184°
2026-05-05 22:21 40.27903 3.40163 15849 ft 333 kts 184°
2026-05-05 22:22 40.25581 3.40295 15436 ft 337 kts 183°
2026-05-05 22:22 40.23225 3.40428 15023 ft 340 kts 183°
2026-05-05 22:22 40.20855 3.40563 14629 ft 341 kts 183°
2026-05-05 22:22 40.18488 3.40697 14232 ft 340 kts 182°
2026-05-05 22:23 40.16140 3.40830 13974 ft 334 kts 182°
2026-05-05 22:23 40.13851 3.40959 13816 ft 324 kts 182°
2026-05-05 22:23 40.11627 3.41085 13655 ft 315 kts 183°
2026-05-05 22:23 40.09470 3.41206 13494 ft 305 kts 183°
2026-05-05 22:24 40.07383 3.41324 13348 ft 295 kts 183°
2026-05-05 22:24 40.05365 3.41438 13219 ft 286 kts 183°
2026-05-05 22:24 40.03406 3.41549 13083 ft 277 kts 183°
2026-05-05 22:24 40.01495 3.41656 12790 ft 275 kts 183°
2026-05-05 22:25 39.99561 3.41765 12509 ft 281 kts 183°
2026-05-05 22:25 39.97617 3.41875 12235 ft 285 kts 183°
2026-05-05 22:25 39.95636 3.41987 11947 ft 285 kts 183°
2026-05-05 22:25 39.93654 3.42098 11666 ft 285 kts 182°
2026-05-05 22:26 39.91673 3.42210 11378 ft 285 kts 182°
2026-05-05 22:26 39.89691 3.42321 11089 ft 285 kts 182°
2026-05-05 22:26 39.87713 3.42432 10798 ft 285 kts 182°
2026-05-05 22:26 39.85735 3.42543 10505 ft 285 kts 182°
2026-05-05 22:27 39.83758 3.42655 10227 ft 284 kts 182°
2026-05-05 22:27 39.81805 3.42764 10087 ft 277 kts 182°
2026-05-05 22:27 39.79910 3.42870 9907 ft 270 kts 182°
2026-05-05 22:27 39.78039 3.42974 9603 ft 268 kts 181°
2026-05-05 22:28 39.76185 3.43078 9308 ft 266 kts 181°
2026-05-05 22:28 39.74345 3.43175 9014 ft 263 kts 184°
2026-05-05 22:28 39.72595 3.42733 8670 ft 255 kts 209°
2026-05-05 22:28 39.71229 3.41355 8376 ft 247 kts 233°
2026-05-05 22:29 39.70453 3.39414 8123 ft 241 kts 255°
2026-05-05 22:29 39.70244 3.37250 7883 ft 245 kts 267°
2026-05-05 22:29 39.70207 3.35005 7591 ft 251 kts 269°
2026-05-05 22:29 39.70213 3.32722 7311 ft 254 kts 270°
2026-05-05 22:30 39.70247 3.30425 7019 ft 255 kts 270°
2026-05-05 22:30 39.70295 3.28132 6741 ft 254 kts 271°
2026-05-05 22:30 39.70352 3.25848 6460 ft 253 kts 271°
2026-05-05 22:30 39.70414 3.23568 6171 ft 252 kts 271°
2026-05-05 22:31 39.70480 3.21298 5871 ft 250 kts 271°
2026-05-05 22:31 39.70545 3.19081 5602 ft 248 kts 271°
2026-05-05 22:31 39.70612 3.16848 5314 ft 246 kts 271°
2026-05-05 22:31 39.70670 3.14962 5093 ft 245 kts 271°
2026-05-05 22:32 39.70737 3.12719 4832 ft 242 kts 271°
2026-05-05 22:32 39.70802 3.10539 4575 ft 240 kts 270°
2026-05-05 22:32 39.70528 3.08464 4398 ft 232 kts 245°
2026-05-05 22:32 39.69751 3.06680 4285 ft 223 kts 241°
2026-05-05 22:33 39.68988 3.04970 4164 ft 214 kts 240°
2026-05-05 22:33 39.68258 3.03332 4040 ft 205 kts 241°
2026-05-05 22:33 39.67555 3.01745 3926 ft 203 kts 240°
2026-05-05 22:33 39.66822 3.00148 3819 ft 208 kts 240°
2026-05-05 22:34 39.66070 2.98534 3692 ft 209 kts 239°
2026-05-05 22:34 39.65312 2.96920 3530 ft 210 kts 239°
2026-05-05 22:34 39.64558 2.95311 3319 ft 208 kts 240°
2026-05-05 22:34 39.63805 2.93712 3071 ft 207 kts 239°
2026-05-05 22:35 39.63065 2.92138 2823 ft 199 kts 239°
2026-05-05 22:35 39.62358 2.90636 2542 ft 191 kts 240°
2026-05-05 22:35 39.61682 2.89193 2296 ft 184 kts 239°
2026-05-05 22:35 39.61050 2.87858 2065 ft 166 kts 239°
2026-05-05 22:36 39.60466 2.86617 1841 ft 156 kts 239°
2026-05-05 22:36 39.59912 2.85438 1648 ft 155 kts 239°
2026-05-05 22:36 39.59350 2.84245 1433 ft 155 kts 239°
2026-05-05 22:36 39.58790 2.83055 1269 ft 155 kts 238°
2026-05-05 22:37 39.58204 2.81829 1028 ft 160 kts 238°
2026-05-05 22:37 39.57637 2.80617 813 ft 155 kts 238°
2026-05-05 22:37 39.57090 2.79457 631 ft 153 kts 238°
2026-05-05 22:37 39.56551 2.78312 408 ft 147 kts 238°
2026-05-05 22:38 39.56017 2.77191 242 ft 145 kts 237°
2026-05-05 22:38 39.55504 2.76089 59 ft 144 kts 238°
2026-05-05 22:38 39.55022 2.75064 41 ft 117 kts 238°
2026-05-05 22:38 39.54673 2.74328 41 ft 64 kts 238°
2026-05-05 22:39 39.54562 2.74039 41 ft 33 kts 259°
2026-05-05 22:39 39.54551 2.73836 41 ft 34 kts 268°
2026-05-05 22:39 39.54551 2.73776 41 ft 0 kts 271°
2026-05-05 22:40 39.54551 2.73774 41 ft 1 kts 271°
2026-05-05 22:41 39.54551 2.73753 41 ft 4 kts 271°
2026-05-05 22:41 39.54560 2.73694 41 ft 9 kts 291°
2026-05-05 22:41 39.54615 2.73627 40 ft 14 kts 346°
2026-05-05 22:41 39.54712 2.73576 41 ft 12 kts 329°
2026-05-05 22:42 39.54765 2.73540 41 ft 3 kts
2026-05-05 22:42 39.54778 2.73552 41 ft 4 kts 48°
2026-05-05 22:42 39.54791 2.73579 41 ft 3 kts 59°
2026-05-05 22:42 39.54798 2.73596 41 ft 1 kts 59°
2026-05-05 22:43 39.54799 2.73596 41 ft 0 kts 59°